When you browse on this site, cookies collect data to enhance your experience and personalize the content and advertising you see.
Visit our Privacy Policy to learn more. By continuing to use the site, you agree to this use of cookies and data.
  • In Österreich
  • Länderverzeichnis
  • Für 7 Tage
  • Wassertemperatur
  • Satellitenkarten
  • Wetterkarte
  • News
  • Widgets
  • user-avatar
    Anmelden

    Stündliche Wetter Piastów

    Heute, 21 März, Donnerstag

    Zeit Temperatur Niederschläge Wind Luftdruck Luftfeuchtigkeit
    00:00 +4°C° 0 mm 4 m/S 763 mmHg 59%
    01:00 +5°C° 0 mm 5 m/S 763 mmHg 59%
    02:00 +5°C° 0 mm 5 m/S 763 mmHg 62%
    03:00 +5°C° 0 mm 5 m/S 763 mmHg 65%
    04:00 +5°C° 0 mm 5 m/S 763 mmHg 67%
    05:00 +5°C° 0 mm 4 m/S 763 mmHg 70%
    06:00 +5°C° 0 mm 4 m/S 763 mmHg 73%
    07:00 +5°C° 0 mm 4 m/S 763 mmHg 77%
    08:00 +6°C° 0 mm 4 m/S 763 mmHg 77%
    09:00 +6°C° 0 mm 4 m/S 763 mmHg 78%
    10:00 +7°C° 0 mm 4 m/S 763 mmHg 79%
    11:00 +7°C° 0 mm 4 m/S 763 mmHg 77%
    12:00 +8°C° 0 mm 4 m/S 763 mmHg 76%
    13:00 +8°C° 0 mm 5 m/S 763 mmHg 74%
    14:00 +9°C° 0 mm 5 m/S 763 mmHg 73%
    15:00 +9°C° 0 mm 5 m/S 762 mmHg 72%
    16:00 +10°C° 0 mm 5 m/S 762 mmHg 71%
    17:00 +9°C° 0 mm 5 m/S 762 mmHg 75%
    18:00 +10°C° 0 mm 4 m/S 762 mmHg 78%
    19:00 +8°C° 0 mm 4 m/S 762 mmHg 81%
    20:00 +8°C° 0 mm 4 m/S 762 mmHg 83%
    21:00 +8°C° 0 mm 4 m/S 762 mmHg 84%
    22:00 +8°C° 0 mm 4 m/S 762 mmHg 85%
    23:00 +8°C° 0 mm 4 m/S 762 mmHg 86%

    Morgen, 22 März, Freitag

    Zeit Temperatur Niederschläge Wind Luftdruck Luftfeuchtigkeit
    00:00 +8°C° 0 mm 4 m/S 762 mmHg 87%
    01:00 +8°C° 0 mm 4 m/S 762 mmHg 88%
    02:00 +8°C° 0.1 mm 4 m/S 762 mmHg 89%
    03:00 +8°C° 0.1 mm 4 m/S 762 mmHg 90%
    04:00 +8°C° 0.1 mm 4 m/S 762 mmHg 91%
    05:00 +8°C° 0 mm 4 m/S 762 mmHg 92%
    06:00 +8°C° 0 mm 4 m/S 762 mmHg 92%
    07:00 +8°C° 0 mm 4 m/S 762 mmHg 93%
    08:00 +8°C° 0 mm 4 m/S 763 mmHg 89%
    09:00 +10°C° 0 mm 3 m/S 763 mmHg 86%
    10:00 +11°C° 0 mm 3 m/S 763 mmHg 82%
    11:00 +11°C° 0 mm 3 m/S 763 mmHg 82%
    12:00 +12°C° 0 mm 2 m/S 763 mmHg 81%
    13:00 +12°C° 0 mm 2 m/S 763 mmHg 81%
    14:00 +13°C° 0 mm 2 m/S 762 mmHg 77%
    15:00 +13°C° 0 mm 2 m/S 762 mmHg 74%
    16:00 +14°C° 0 mm 2 m/S 762 mmHg 70%
    17:00 +13°C° 0 mm 2 m/S 762 mmHg 74%
    18:00 +12°C° 0 mm 1 m/S 762 mmHg 78%
    19:00 +10°C° 0 mm 0 m/S 762 mmHg 82%
    20:00 +9°C° 0 mm 0 m/S 762 mmHg 84%
    21:00 +9°C° 0 mm 0 m/S 762 mmHg 86%
    22:00 +8°C° 0 mm 0 m/S 762 mmHg 88%
    23:00 +8°C° 0 mm 0 m/S 761 mmHg 89%

    übermorgen, 23 März, Samstag

    Zeit Temperatur Niederschläge Wind Luftdruck Luftfeuchtigkeit
    00:00 +9°C° 0 mm 1 m/S 761 mmHg 90%
    01:00 +8°C° 0 mm 1 m/S 761 mmHg 90%
    02:00 +8°C° 0 mm 1 m/S 761 mmHg 91%
    03:00 +8°C° 0 mm 1 m/S 761 mmHg 92%
    04:00 +8°C° 0 mm 1 m/S 760 mmHg 93%
    05:00 +7°C° 0 mm 2 m/S 760 mmHg 92%
    06:00 +7°C° 0 mm 2 m/S 760 mmHg 92%
    07:00 +7°C° 0 mm 2 m/S 759 mmHg 92%
    08:00 +9°C° 0 mm 2 m/S 759 mmHg 84%
    09:00 +12°C° 0 mm 2 m/S 759 mmHg 77%
    10:00 +14°C° 0 mm 2 m/S 759 mmHg 70%
    11:00 +15°C° 0 mm 2 m/S 759 mmHg 65%
    12:00 +17°C° 0 mm 3 m/S 758 mmHg 61%
    13:00 +18°C° 0 mm 3 m/S 758 mmHg 56%
    14:00 +18°C° 0 mm 3 m/S 757 mmHg 55%
    15:00 +18°C° 0 mm 3 m/S 757 mmHg 55%
    16:00 +18°C° 0 mm 3 m/S 757 mmHg 54%
    17:00 +17°C° 0 mm 3 m/S 757 mmHg 59%
    18:00 +15°C° 0 mm 2 m/S 757 mmHg 64%
    19:00 +14°C° 0 mm 2 m/S 757 mmHg 70%
    20:00 +12°C° 0 mm 3 m/S 757 mmHg 73%
    21:00 +12°C° 0 mm 3 m/S 757 mmHg 77%
    22:00 +11°C° 0 mm 3 m/S 758 mmHg 81%
    23:00 +10°C° 0 mm 4 m/S 758 mmHg 83%

    24 März, Sonntag

    Zeit Temperatur Niederschläge Wind Luftdruck Luftfeuchtigkeit
    00:00 +10°C° 0 mm 4 m/S 758 mmHg 85%
    01:00 +8°C° 0 mm 4 m/S 758 mmHg 86%
    02:00 +7°C° 0 mm 4 m/S 758 mmHg 82%
    03:00 +7°C° 0 mm 3 m/S 758 mmHg 79%
    04:00 +5°C° 0 mm 3 m/S 759 mmHg 75%
    05:00 +5°C° 0 mm 3 m/S 759 mmHg 73%
    06:00 +5°C° 0 mm 3 m/S 759 mmHg 71%
    07:00 +4°C° 0 mm 3 m/S 759 mmHg 68%
    08:00 +5°C° 0 mm 3 m/S 759 mmHg 64%
    09:00 +8°C° 0 mm 2 m/S 759 mmHg 59%
    10:00 +9°C° 0 mm 2 m/S 759 mmHg 55%
    11:00 +10°C° 0 mm 2 m/S 759 mmHg 50%
    12:00 +10°C° 0 mm 2 m/S 759 mmHg 45%
    13:00 +12°C° 0 mm 2 m/S 758 mmHg 40%
    14:00 +12°C° 0 mm 2 m/S 758 mmHg 39%
    15:00 +12°C° 0 mm 2 m/S 757 mmHg 38%
    16:00 +13°C° 0 mm 2 m/S 757 mmHg 37%
    17:00 +10°C° 0 mm 2 m/S 757 mmHg 41%
    18:00 +9°C° 0 mm 2 m/S 756 mmHg 45%
    19:00 +8°C° 0 mm 2 m/S 756 mmHg 49%
    20:00 +8°C° 0 mm 2 m/S 756 mmHg 50%
    21:00 +8°C° 0 mm 2 m/S 755 mmHg 51%
    22:00 +9°C° 0 mm 1 m/S 755 mmHg 52%
    23:00 +8°C° 0 mm 1 m/S 755 mmHg 53%

    25 März, Montag

    Zeit Temperatur Niederschläge Wind Luftdruck Luftfeuchtigkeit
    00:00 +8°C° 0 mm 1 m/S 754 mmHg 54%
    01:00 +8°C° 0 mm 1 m/S 754 mmHg 56%
    02:00 +8°C° 0.1 mm 1 m/S 753 mmHg 58%
    03:00 +7°C° 0.1 mm 1 m/S 753 mmHg 61%
    04:00 +7°C° 0.1 mm 1 m/S 752 mmHg 64%
    05:00 +6°C° 0 mm 2 m/S 752 mmHg 64%
    06:00 +6°C° 0 mm 2 m/S 752 mmHg 65%
    07:00 +5°C° 0 mm 3 m/S 752 mmHg 65%
    08:00 +7°C° 0 mm 3 m/S 752 mmHg 58%
    09:00 +7°C° 0 mm 4 m/S 752 mmHg 52%
    10:00 +8°C° 0 mm 5 m/S 751 mmHg 46%
    11:00 +8°C° 0 mm 6 m/S 751 mmHg 45%
    12:00 +9°C° 0 mm 6 m/S 750 mmHg 45%
    13:00 +9°C° 0 mm 7 m/S 750 mmHg 45%
    14:00 +9°C° 0 mm 7 m/S 749 mmHg 45%
    15:00 +9°C° 0 mm 7 m/S 749 mmHg 44%
    16:00 +9°C° 0 mm 7 m/S 748 mmHg 44%
    17:00 +8°C° 0.3 mm 7 m/S 748 mmHg 52%
    18:00 +5°C° 0.3 mm 7 m/S 748 mmHg 61%
    19:00 +4°C° 0.3 mm 8 m/S 748 mmHg 69%
    20:00 +4°C° 0.2 mm 7 m/S 748 mmHg 69%
    21:00 +3°C° 0.2 mm 7 m/S 748 mmHg 68%
    22:00 +2°C° 0.2 mm 6 m/S 748 mmHg 68%
    23:00 +2°C° 0 mm 7 m/S 747 mmHg 70%

    26 März, Dienstag

    Zeit Temperatur Niederschläge Wind Luftdruck Luftfeuchtigkeit
    00:00 0°C° 0 mm 7 m/S 747 mmHg 71%
    01:00 0°C° 0 mm 7 m/S 747 mmHg 73%
    02:00 0°C° 0.1 mm 8 m/S 746 mmHg 73%
    03:00 0°C° 0.1 mm 9 m/S 746 mmHg 73%
    04:00 0°C° 0.1 mm 10 m/S 745 mmHg 73%
    05:00 0°C° 0.1 mm 9 m/S 745 mmHg 73%
    06:00 0°C° 0.1 mm 9 m/S 745 mmHg 74%
    07:00 0°C° 0.1 mm 9 m/S 745 mmHg 75%
    08:00 0°C° 0.2 mm 9 m/S 745 mmHg 73%
    09:00 0°C° 0.2 mm 9 m/S 746 mmHg 71%
    10:00 +1°C° 0.2 mm 9 m/S 746 mmHg 69%
    11:00 +1°C° 0.5 mm 9 m/S 747 mmHg 68%
    12:00 +1°C° 0.5 mm 9 m/S 747 mmHg 68%
    13:00 +1°C° 0.5 mm 9 m/S 748 mmHg 67%
    14:00 +1°C° 0.1 mm 9 m/S 749 mmHg 68%
    15:00 0°C° 0.1 mm 9 m/S 749 mmHg 68%
    16:00 0°C° 0.1 mm 9 m/S 750 mmHg 69%
    17:00 -1°C° 0.2 mm 9 m/S 751 mmHg 72%
    18:00 -1°C° 0.2 mm 9 m/S 751 mmHg 75%
    19:00 -3°C° 0.2 mm 9 m/S 752 mmHg 77%
    20:00 -3°C° 0.1 mm 9 m/S 752 mmHg 77%
    21:00 -3°C° 0.1 mm 9 m/S 752 mmHg 77%
    22:00 -3°C° 0.1 mm 9 m/S 752 mmHg 76%
    23:00 -4°C° 0.1 mm 9 m/S 753 mmHg 78%
    Mehr zeigen